Regional Weather Roundup
Issued by NWS

Current Version | Previous Version | Text Only | Print | Product List | Glossary On
Versions: 1 2 3 4 5 6 7 8 9 10 11 12 13 14 15 16 17 18 19 20 21 22 23
000
ASUS45 KBOI 040310
RWRID

IDAHO REGIONAL WEATHER ROUNDUP
NATIONAL WEATHER SERVICE BOISE ID
900 PM MDT MON OCT 03 2022

NOTE: "FAIR" INDICATES FEW OR NO CLOUDS BELOW 12000 FEET
WITH NO SIGNIFICANT WEATHER AND/OR OBSTRUCTIONS TO VISIBILITY

IDZ012-014-040400-
SOUTHWEST IDAHO


CITY           SKY/WX    TMP DP  RH WIND       PRES   REMARKS
BOISE          CLEAR     67  42  40 CALM      30.13S
CALDWELL       CLEAR     63  46  54 SE5       30.11S
$$

IDZ016-017-040400-
SOUTHCENTRAL IDAHO


CITY           SKY/WX    TMP DP  RH WIND       PRES   REMARKS
BURLEY         CLEAR     54  42  64 CALM      30.19R
JEROME         CLEAR     57  36  45 CALM      30.19S
TWIN FALLS     CLEAR     50  34  54 S5        30.20R
$$

IDZ019>023-040400-
SOUTHEAST IDAHO


CITY           SKY/WX    TMP DP  RH WIND       PRES   REMARKS
IDAHO FALLS    PTCLDY    54  43  66 N5        30.23R
POCATELLO      CLEAR     54  39  57 E6        30.21R
REXBURG        MOCLDY    58  43  57 NE6       30.23S
$$

IDZ006-010-011-018-031-032-040400-
CENTRAL IDAHO MOUNTAINS


CITY           SKY/WX    TMP DP  RH WIND       PRES   REMARKS
MCCALL         CLEAR     58  39  49 CALM      30.21R
HAILEY         CLEAR     57  39  51 CALM      30.27R
STANLEY          N/A     45  34  65 CALM      30.30R
SALMON         CLEAR     52  41  66 CALM      30.22R
CHALLIS        CLEAR     55  38  52 NW6       30.23R
$$

IDZ002-004-006-007-026-040400-
NORTHERN IDAHO


CITY           SKY/WX    TMP DP  RH WIND       PRES   REMARKS
LEWISTON       CLEAR     69  51  52 S6        30.07S
LOWELL           N/A     58  55  90 CALM      30.12R
COEUR D`ALENE  CLEAR     63  53  70 SE7       30.14R
MULLAN PASS    CLEAR     53  35  50 N5        30.29S
$$



USA.gov is the U.S. government's official web portal to all federal, state and local government web resources and services.